Weather in Bol'shaya Vereyka

Russia / Voronezh Oblast     52°01′02″N   38°55′34″E
temp.,
°C
wind,
m/s
gust,
m/s
humid.,
%
clouds,
%
prec.,
mm/h
press.,
hPa
HPBL,
m
17 august, wed
wed1700:00+24e41037100 0.0 1016258
03:00+23e51138100 0.0 1016406
06:00+21ne5941100 0.0 1014263
09:00+22ene4939100 0.0 1015325
12:00+24ene61040100 0.1 1015517
15:00+29ene91129100 0.1 10131470
18:00+26ene71235100 0.0 1013705
21:00+24ene71539100 0.0 1013852
18 august, thu
thu1800:00+23ene817409 0.0 1012818
03:00+23ene7164186 0.0 1011646
06:00+22ene61446100 0.0 1011559
09:00+26ene8133394 0.0 10111090
12:00+26ene6124497 0.8 10111107
15:00+29e71034100 2.1 10111871
18:00+27ese594383 0.1 10121144
21:00+23ene6115643 0.1 1013553
19 august, fri
fri1900:00+19ene6137184 0.8 1014444
03:00+20ene8156879 0.8 1014609
06:00+19ene81572100 0.0 1015888
09:00+21e101464100 0.0 10151064
12:00+19e81580100 0.7 10171014
15:00+19e71480100 1.1 1018986
18:00+17e81688100 0.8 1018908
21:00+18e9187881 0.8 1018832
20 august, sat
sat2000:00+21e8155672 0.0 1018881
03:00+22ese81545100 0.0 10191241
06:00+21ese81448100 0.0 1020976
09:00+24ese8134098 0.0 10211091
12:00+29se91125100 0.0 10212199
15:00+29ese81123100 0.0 10202510
18:00+27ese61126100 0.0 10201272
21:00+23ese4833100 0.0 1021287
21 august, sun
sun2100:00+22e5132699 0.0 1021539
03:00+19e51224100 0.0 1022358
06:00+18e41027100 0.0 1022266
09:00+22ese61022100 0.0 1021657
12:00+26ese71018100 0.0 10211306
15:00+27ese6915100 0.0 10201804
18:00+26e51018100 0.0 1020738
21:00+20ene41231100 0.0 1020186